Regional Weather Roundup
Issued by NWS

Home | Current Version | Previous Version | Graphics & Text | Print | Product List | Glossary On
Versions: 1 2 3 4 5 6 7 8 9 10 11 12 13 14 15 16 17 18 19 20 21 22 23 24 25 26 27 28 29 30 31 32 33 34 35 36 37 38 39 40 41 42 43 44 45 46 47 48 49 50
266
ASUS43 KDTX 301701
RWRMI
MICHIGAN HOURLY REGIONAL WEATHER ROUNDUP
NATIONAL WEATHER SERVICE DETROIT/PONTIAC MI
100 PM EDT TUE AUG 30 2016

NOTE: "FAIR" INDICATES FEW OR NO CLOUDS BELOW 12,000 FEET WITH NO
SIGNIFICANT WEATHER AND/OR OBSTRUCTION TO VISIBILITY.

MIZ047>049-052>055-059>063-066>070-074>076-081>083-301800-
SOUTHEAST LOWER MICHIGAN

CITY           SKY/WX    TMP DP  RH WIND       PRES   REMARKS
ADRIAN         CLOUDY    80  59  48 SW5       30.16F
ALMA           PTSUNNY   82  74  75 SW5       30.13F
ANN ARBOR      CLOUDY    78  59  51 S6        30.15F
BAD AXE        SUNNY     80  70  71 SW9       30.11F
CARO           MOSUNNY   81  70  70 SW7       30.12F
DETROIT CITY   PTSUNNY   79  63  57 SW6       30.14F
DETROIT        CLOUDY    80  61  52 S8        30.15F
FLINT          CLOUDY    76  67  73 S7        30.15S
GROSSE ILE     CLOUDY    76  62  63 S5        30.15F
HILLSDALE      CLOUDY    77  63  61 SW3       30.17F
HOWELL         CLOUDY    79  66  64 SW5       30.15F

CITY           SKY/WX    TMP DP  RH WIND       PRES   REMARKS
JACKSON        CLOUDY    77  61  57 SW7       30.16F
LAMBERTVILLE   CLOUDY    82  59  45 CALM      30.16S
LANSING        CLOUDY    79  67  66 W7        30.15F
LAPEER         CLOUDY    79  66  65 SW7       30.15S
MASON          CLOUDY    80  66  62 SW7       30.15S
MONROE         PTSUNNY   84  60  43 CALM      30.14F
MT. CLEMENS    PTSUNNY   82  68  63 S12       30.12F
PONTIAC        CLOUDY    79  61  53 S7        30.14F
PORT HOPE        N/A     82  68  62 W8        30.08F
PORT HURON     MOSUNNY   81  70  69 S9        30.13F
TRI CITIES     MOSUNNY   81  72  74 SW9       30.12F
MIDLAND        FAIR      83  67  60 S3        30.10F
TROY           PTSUNNY   83  55  37 SW7       30.16S
SAGINAW HB     MOSUNNY   81  68  65 SW10      30.11F
$$
MIZ043>046-050>051-056>058-064>065-071>073-077>080-301800-
SOUTHWEST LOWER MICHIGAN

CITY           SKY/WX    TMP DP  RH WIND       PRES   REMARKS
BATTLE CREEK   CLOUDY    73  69  87 W6        30.16F
BENTON HARBOR  CLOUDY    77  70  79 S6        30.12F
BIG RAPIDS     MOSUNNY   82  69  66 W5        30.12F
COLDWATER      LGT RAIN  73  68  84 CALM      30.17F
FREMONT        PTSUNNY   80  69  70 W7        30.12F
HOLLAND        CLOUDY    79  70  74 W7        30.14F
GRAND RAPIDS   PTSUNNY   81  70  69 SW8       30.14F
IONIA          FAIR      80  64  58 SW7       30.13F
KALAMAZOO      CLOUDY    74  70  87 S3        30.15F
LUDINGTON      PTSUNNY   75  71  87 SW7       30.12S
MARSHALL       CLOUDY    76  70  80 SW6       30.15F
MOUNT PLEASANT PTSUNNY   82  68  61 W7        30.11S
MUSKEGON       PTSUNNY   82  71  69 SW8       30.13F
SOUTH HAVEN    MOSUNNY   77  69  76 CALM      30.12F
$$
MIZ016>042-301800-
NORTHERN LOWER MICHIGAN

CITY           SKY/WX    TMP DP  RH WIND       PRES   REMARKS
ALPENA         MOSUNNY   85  68  56 W6        30.06F
BEAVER ISLAND  CLOUDY    79  68  70 W8          N/A
BELLAIRE       PTSUNNY   81  70  69 SW6       30.08F
CADILLAC       MOSUNNY   83  67  59 SW12      30.12F
CHARLEVOIX     CLOUDY    77  72  84 W12       30.12S
FRANKFORT      CLOUDY    76  70  83 SW8       30.09F
GAYLORD        CLOUDY    80  67  64 W9        30.11F
GRAYLING       PTSUNNY   83  67  58 W10       30.11F
HARBOR SPRINGS PTSUNNY   77  71  83 W7        30.08F
HOUGHTON LAKE  MOSUNNY   82  66  58 W8        30.12F
MANISTEE       PTSUNNY   77  72  84 W9        30.10F
OSCODA         SUNNY     82  68  62 W9        30.07F
PELLSTON       MOSUNNY   78  68  71 SW13      30.08F
ROGERS CITY    PTSUNNY   82  69  66 W7        30.07F
TRAVERSE CITY  PTSUNNY   79  71  76 VRB5      30.08F
$$
MIZ007>008-015-301800-
EASTERN UPPER MICHIGAN

CITY           SKY/WX    TMP DP  RH WIND       PRES   REMARKS
KINROSS        CLOUDY    77  69  76 W8        30.05F
MACKINAC ISLAN SUNNY     75  73  91 SW10G17   30.06F
NEWBERRY       CLOUDY    78  69  74 W6        30.07F
S. S. MARIE    CLOUDY    77  67  71 W8        30.04S
MUNISING         N/A     71  67  87 NW10      30.09S
$$
MIZ004>006-011>014-085-301800-
CENTRAL UPPER MICHIGAN

CITY           SKY/WX    TMP DP  RH WIND       PRES   REMARKS
MANISTIQUE     PTSUNNY   80  68  67 W9        30.07S
ESCANABA       PTSUNNY   80  67  64 VRB7      30.07F
MENOMINEE      MOSUNNY  N/A N/A N/A MISG      30.09F
SAWYER-GWINN   CLOUDY    72  64  78 E3        30.11F
$$
MIZ001>003-009>011-084-301800-
WESTERN UPPER MICHIGAN

CITY           SKY/WX    TMP DP  RH WIND       PRES   REMARKS
IRON MOUNTAIN  CLOUDY    75  64  68 NW8       30.11F
HOUGHTON       MOSUNNY   71  57  61 NW9       30.12S
COPPER HARBOR    N/A     68  59  73 N13       30.10S
IRONWOOD       CLOUDY    70  61  73 N8        30.17S
$$

ABBREVIATIONS USED IN REMARKS
   TC - TEMPERATURE IN CELSIUS
  WCI - WIND CHILL INDEX
   HX - HEAT INDEX
  VSB - VISIBILITY





USA.gov is the U.S. government's official web portal to all federal, state and local government web resources and services.